Valley City, ND

11:39 AM CDT on September 18, 2019 (GMT -0500)
Valley City

Weather History for KBAC - August, 2019

Change the Weather History Date:

Friday, August 23, 2019

  Actual Average (KJMS) Record (KJMS)
Temperature  
Mean Temperature 65 °F -  
Max Temperature 73 °F 81 °F 103 °F (1929)
Min Temperature 57 °F 54 °F 34 °F (1908)
Growing Degree Days 15 (Base 50)    
Moisture  
Dew Point 57 °F    
Average Humidity 77    
Maximum Humidity 88    
Minimum Humidity 57    
Precipitation  
Precipitation 0.00 in - - ()
Sea Level Pressure  
Sea Level Pressure 30.12 in    
Wind  
Wind Speed 11 mph ()    
Max Wind Speed 22 mph    
Max Gust Speed 31 mph    
Visibility 10.0 miles    
Events      
Averages and records for this station are not official NWS values.
T = Trace of Precipitation, MM = Missing Value Source: Averaged Metar Reports

Daily Weather History Graph

Daily Weather History Graph

Search for Another Location

Airport or City:

Astronomy

Aug. 23, 2019 Rise Set
Actual Time 6:39 AM CDT 8:28 PM CDT
Civil Twilight 6:07 AM CDT 9:01 PM CDT
Nautical Twilight 5:27 AM CDT 9:40 PM CDT
Astronomical Twilight 4:43 AM CDT 10:24 PM CDT
Moon No Moon Rise 2:47 PM CDT (8/23)
Length of Visible Light 14h 54m
Length of Day
13h 49m
Waning Gibbous, 49% of the Moon is Illuminated
Aug 23
Waning Gibbous
Aug 30
New
Sep 5
First Quarter
Sep 13
Full
Sep 21
Last Quarter

Hourly Weather History & Observations

Time (CDT) Temp. Dew Point Humidity Pressure Visibility Wind Dir Wind Speed Gust Speed Precip Events Conditions
12:15 AM 59.0 °F 53.6 °F 82% 30.10 in 10.0 mi SE 10.4 mph 16.1 mph N/A   Clear
12:35 AM 59.0 °F 53.6 °F 82% 30.10 in 10.0 mi SE 11.5 mph - N/A   Partly Cloudy
12:55 AM 59.0 °F 53.6 °F 82% 30.10 in 10.0 mi SSE 9.2 mph - N/A   Partly Cloudy
1:15 AM 59.0 °F 53.6 °F 82% 30.10 in 10.0 mi SSE 10.4 mph - N/A   Partly Cloudy
1:35 AM 59.0 °F 53.6 °F 82% 30.10 in 10.0 mi SE 13.8 mph - N/A   Mostly Cloudy
1:55 AM 59.0 °F 53.6 °F 82% 30.10 in 10.0 mi SSE 12.7 mph - N/A   Mostly Cloudy
2:15 AM 59.0 °F 53.6 °F 82% 30.11 in 10.0 mi South 10.4 mph 17.3 mph N/A   Overcast
2:35 AM 59.0 °F 55.4 °F 88% 30.11 in 10.0 mi SSE 6.9 mph - N/A   Overcast
2:55 AM 59.0 °F 55.4 °F 88% 30.10 in 10.0 mi SSE 10.4 mph - N/A   Overcast
3:15 AM 59.0 °F 55.4 °F 88% 30.10 in 10.0 mi SSE 8.1 mph - N/A   Overcast
3:35 AM 59.0 °F 55.4 °F 88% 30.10 in 10.0 mi SSE 10.4 mph - N/A   Overcast
3:55 AM 59.0 °F 55.4 °F 88% 30.11 in 10.0 mi SSE 8.1 mph - N/A   Overcast
4:15 AM 59.0 °F 55.4 °F 88% 30.11 in 10.0 mi SSE 8.1 mph - N/A   Overcast
4:35 AM 59.0 °F 55.4 °F 88% 30.10 in 10.0 mi SE 9.2 mph - N/A   Overcast
4:55 AM 59.0 °F 55.4 °F 88% 30.10 in 10.0 mi SE 9.2 mph - N/A   Overcast
5:15 AM 59.0 °F 53.6 °F 82% 30.11 in 10.0 mi SE 11.5 mph - N/A   Overcast
5:35 AM 59.0 °F 53.6 °F 82% 30.12 in 10.0 mi SE 9.2 mph 16.1 mph N/A   Overcast
5:55 AM 59.0 °F 53.6 °F 82% 30.12 in 10.0 mi SE 10.4 mph - N/A   Overcast
6:15 AM 59.0 °F 53.6 °F 82% 30.12 in 10.0 mi SE 13.8 mph - N/A   Overcast
6:35 AM 59.0 °F 53.6 °F 82% 30.13 in 10.0 mi SE 8.1 mph 15.0 mph N/A   Overcast
6:55 AM 57.2 °F 53.6 °F 88% 30.13 in 10.0 mi SE 11.5 mph - N/A   Overcast
7:15 AM 57.2 °F 53.6 °F 88% 30.13 in 10.0 mi SSE 10.4 mph - N/A   Overcast
7:35 AM 57.2 °F 53.6 °F 88% 30.14 in 10.0 mi SE 9.2 mph - N/A   Overcast
7:55 AM 59.0 °F 55.4 °F 88% 30.15 in 10.0 mi SE 8.1 mph - N/A   Overcast
8:15 AM 59.0 °F 55.4 °F 88% 30.15 in 10.0 mi SE 8.1 mph - N/A   Overcast
8:35 AM 59.0 °F 53.6 °F 82% 30.15 in 10.0 mi SSE 10.4 mph 16.1 mph N/A   Overcast
8:55 AM 59.0 °F 53.6 °F 82% 30.15 in 10.0 mi SSE 12.7 mph - N/A   Overcast
9:15 AM 59.0 °F 53.6 °F 82% 30.15 in 10.0 mi SE 9.2 mph - N/A   Overcast
9:35 AM 59.0 °F 53.6 °F 82% 30.14 in 10.0 mi SE 11.5 mph - N/A   Overcast
9:55 AM 59.0 °F 53.6 °F 82% 30.14 in 10.0 mi SE 12.7 mph - N/A   Overcast
10:15 AM 60.8 °F 55.4 °F 82% 30.15 in 10.0 mi SE 12.7 mph - N/A   Overcast
10:35 AM 60.8 °F 55.4 °F 82% 30.15 in 10.0 mi SE 12.7 mph - N/A   Overcast
10:55 AM 60.8 °F 55.4 °F 82% 30.15 in 10.0 mi SE 12.7 mph - N/A   Overcast
11:15 AM 62.6 °F 55.4 °F 77% 30.15 in 10.0 mi SE 13.8 mph - N/A   Overcast
11:35 AM 64.4 °F 55.4 °F 73% 30.14 in 10.0 mi SE 16.1 mph - N/A   Overcast
11:55 AM 66.2 °F 55.4 °F 68% 30.14 in 10.0 mi SSE 18.4 mph - N/A   Overcast
12:15 PM 66.2 °F 55.4 °F 68% 30.14 in 10.0 mi SE 17.3 mph 24.2 mph N/A   Mostly Cloudy
12:35 PM 68.0 °F 55.4 °F 64% 30.14 in 10.0 mi SE 19.6 mph - N/A   Scattered Clouds
12:55 PM 68.0 °F 55.4 °F 64% 30.14 in 10.0 mi SSE 20.7 mph 26.5 mph N/A   Mostly Cloudy
1:15 PM 69.8 °F 55.4 °F 60% 30.13 in 10.0 mi SSE 19.6 mph 25.3 mph N/A   Mostly Cloudy
1:35 PM 69.8 °F 55.4 °F 60% 30.13 in 10.0 mi SE 21.9 mph 27.6 mph N/A   Mostly Cloudy
1:55 PM 71.6 °F 55.4 °F 57% 30.13 in 10.0 mi SE 20.7 mph - N/A   Scattered Clouds
2:15 PM 71.6 °F 57.2 °F 60% 30.13 in 10.0 mi SE 17.3 mph 25.3 mph N/A   Mostly Cloudy
2:35 PM 71.6 °F 57.2 °F 60% 30.13 in 10.0 mi SE 17.3 mph - N/A   Mostly Cloudy
2:55 PM 71.6 °F 57.2 °F 60% 30.13 in 10.0 mi SE 18.4 mph - N/A   Mostly Cloudy
3:15 PM 71.6 °F 57.2 °F 60% 30.13 in 10.0 mi SE 19.6 mph 25.3 mph N/A   Overcast
3:35 PM 71.6 °F 59.0 °F 64% 30.12 in 10.0 mi SE 18.4 mph 25.3 mph N/A   Mostly Cloudy
4:15 PM 73.4 °F 59.0 °F 61% 30.11 in 10.0 mi SE 15.0 mph 28.8 mph N/A   Clear
4:35 PM 73.4 °F 59.0 °F 61% 30.11 in 10.0 mi SE 17.3 mph 24.2 mph N/A   Clear
4:55 PM 73.4 °F 59.0 °F 61% 30.10 in 10.0 mi SSE 16.1 mph 27.6 mph N/A   Clear
5:15 PM 73.4 °F 60.8 °F 65% 30.10 in 10.0 mi SE 16.1 mph 24.2 mph N/A   Clear
5:35 PM 73.4 °F 60.8 °F 65% 30.10 in 10.0 mi SE 19.6 mph 25.3 mph N/A   Clear
5:55 PM 73.4 °F 59.0 °F 61% 30.10 in 10.0 mi SSE 19.6 mph 31.1 mph N/A   Clear
6:15 PM 73.4 °F 60.8 °F 65% 30.09 in 10.0 mi SE 19.6 mph 26.5 mph N/A   Clear
6:35 PM 73.4 °F 60.8 °F 65% 30.09 in 10.0 mi SSE 17.3 mph 26.5 mph N/A   Clear
6:55 PM 73.4 °F 60.8 °F 65% 30.09 in 10.0 mi SE 16.1 mph 23.0 mph N/A   Clear
7:15 PM 71.6 °F 60.8 °F 69% 30.09 in 10.0 mi SSE 12.7 mph 24.2 mph N/A   Clear
7:35 PM 71.6 °F 60.8 °F 69% 30.09 in 10.0 mi SE 15.0 mph 21.9 mph N/A   Clear
7:55 PM 71.6 °F 60.8 °F 69% 30.09 in 10.0 mi SSE 10.4 mph 18.4 mph N/A   Clear
8:15 PM 69.8 °F 62.6 °F 78% 30.09 in 10.0 mi SSE 11.5 mph - N/A   Clear
8:35 PM 68.0 °F 62.6 °F 83% 30.09 in 10.0 mi SSE 10.4 mph 16.1 mph N/A   Clear
8:55 PM 68.0 °F 60.8 °F 78% 30.10 in 10.0 mi SSE 11.5 mph - N/A   Clear
9:15 PM 68.0 °F 60.8 °F 78% 30.10 in 10.0 mi SE 10.4 mph - N/A   Clear
9:35 PM 66.2 °F 62.6 °F 88% 30.10 in 10.0 mi SE 10.4 mph - N/A   Partly Cloudy
9:55 PM 66.2 °F 60.8 °F 83% 30.10 in 10.0 mi SE 9.2 mph - N/A   Partly Cloudy
10:15 PM 66.2 °F 60.8 °F 83% 30.10 in 10.0 mi SE 12.7 mph - N/A   Clear
10:35 PM 66.2 °F 60.8 °F 83% 30.10 in 10.0 mi SSE 12.7 mph 18.4 mph N/A   Clear
10:55 PM 64.4 °F 60.8 °F 88% 30.10 in 10.0 mi SSE 9.2 mph 16.1 mph N/A   Clear
11:15 PM 64.4 °F 60.8 °F 88% 30.10 in 10.0 mi SSE 10.4 mph 17.3 mph N/A   Clear
11:35 PM 64.4 °F 60.8 °F 88% 30.10 in 10.0 mi SSE 11.5 mph - N/A   Clear
11:55 PM 64.4 °F 60.8 °F 88% 30.10 in 10.0 mi SSE 11.5 mph 17.3 mph N/A   Clear